Location: Columbus
(35.2256°N, 82.1549°W)
Time: 18:04:49
(UTC-05:00)

Envisat - Pass Details

Date: 03 December 2021
Orbit: 764 x 766 km, 98.2° (Epoch: 21 January)

Event Time Altitude Azimuth Distance (km) Brightness Sun altitude
Rises 04:33:05 0° 27° (NNE) 3,235 6.5 -33.6°
Reaches altitude 10° 04:35:47 10° 40° (NE) 2,304 5.8 -33.0°
Maximum altitude 04:39:56 25° 96° (E) 1,500 5.1 -32.2°
Drops below altitude 10° 04:44:04 10° 151° (SSE) 2,291 5.8 -31.4°
Sets 04:46:44 0° 164° (SSE) 3,212 6.5 -30.8°
